STARLINK-32878, 62892

Orbit data source: Space-Track

STARLINK-32878, 62892 is a payload satellite owned by SpaceX/Seattle (US) in LEO that was launched on Tue, 04 Feb 2025 UTC via an FALCON 9 launch vehicle from the Air Force Eastern Test Range (AFETR). Payload-class satellites include a variety of spacecraft equipped with specific instruments for various scientific and technological missions. These include communications satellites like Starlink; space stations such as the ISS; scientific satellites like the Hubble; Earth observation satellites from companies like Planet Labs, Umbra, and HawkEye 360; GPS; miniature CubeSats for education and research; and military/defense satellites.

Loading next visibility...
Identifier
62892, 2025-024P
Orbit
LEO
Last TLE update
11 hours ago
Origin
Manufacturer
SpaceX/Seattle
Mission
Operational Commercial Communications
Bus & Motor
STARLINK V2M, Unknown motor
Mass
730 kg wet, ~700 kg dry
Launch date (UTC)
2025-02-04 (5 months ago)
Launch vehicle
FALCON 9
Launch site
Air Force Eastern Test Range (AFETR)
Object type
Payload
Rocket body
Debris
Shape & HBR
Box + 2 Pan, 29 m
Radar Cross Section
33.884 m², Large (>1 m²)

Expand to show TLE details & history

TLE from 11 hours ago
0 STARLINK-32878
1 62892U 25024P   25183.38518135  .00022230  00000-0  81494-3 0  9991
2 62892  43.0004 299.0808 0001504 231.9761 128.0955 15.27578708 23987
Epoch: 2025-07-02T09:14Z
TLE epoch observation values (Epoch: 2025-07-02T09:14:39.668Z)
Latitude
-0.00003°
Longitude
-120.25155°
Altitude
483.465 km
Speed
7.625 km/s
True Right ascension
19h 56m 19s
True Declination
0° 00' 00"
Sunlit
Object was in full shadow at epoch
Visualization orbit readout
Latitude
38.56189°
Longitude
-64.67586°
Altitude
486.169 km
Speed
7.627 km/s
Apparent Right ascension
22h 01m 50s
Apparent Declination
1° 09' 09"
Sunlit
Object is in daylight
Visualization observer readout
Local Sidereal Time
08:14:57
Azimuth
322.621° NNW
Elevation
-42.224°
Doppler factor
1
Orbital elements
Apogee altitude
486.03 km
Perigee altitude
483.966 km
Semi-major axis
6,863.135 km
Eccentricity
0.00015
Inclination
43.0004°
RAAN
299.0808°
Arg. of periapsis
231.9761°
True anomaly
Unknown
Mean anomaly
128.0955°
Eccentric anomaly
Unknown
Mean motion
3.81733 °/min
Orbital period
94.31 mins
BSTAR
0.00081494
Loading maneuver chart data...
Loading SW <> Apogee altitude chart data...
Loading historical data...
Loading historical data...
Loading historical data...
Loading historical data...
Loading historical data...
Loading historical data...
Loading historical data...

STARLINK-32878 Visibility forecast

Observer location: undefined°, undefined°

Span
Click to sort rows by Start time (UTC) header in descending order
Start Az.
Max El. time (UTC)
Max El. Az.
Max El.
End time (UTC)
End Az.
5 mins2025-07-03 10:32:54.273Z204.008° SW2025-07-03 10:35:54.273Z138.673° SSE25.434°2025-07-03 10:37:54.273Z96.366° ESE
6 mins2025-07-03 12:11:54.273Z259.235° W2025-07-03 12:13:54.273Z282.405° WNW42.278°2025-07-03 12:17:54.273Z70.911° E
6 mins2025-07-03 13:50:54.273Z289.515° WNW2025-07-03 13:53:54.273Z26.03° NE37.057°2025-07-03 13:56:54.273Z78.559° E
6 mins2025-07-03 15:29:54.273Z287.137° WNW2025-07-03 15:32:54.273Z130.179° SE44.08°2025-07-03 15:35:54.273Z111.891° ESE
4 mins2025-07-03 17:09:54.273Z244.103° WSW2025-07-03 17:10:54.273Z223.159° SW19.222°2025-07-03 17:13:54.273Z167.497° S
|